EW8155 Weather Reports


time (UTC)temp
C
wind
direction
speed
KPH
gust
KPH
rain 1hr
cm
rain 24hr
cm
rain mn
cm
humidity
%
barometer
mb
20260503204558 14 150 0.0 4.8 0.00 0.00 0.00 83 1031.9
20260503203053 13 142 0.0 0.0 0.00 0.00 0.00 86 1031.9
20260503201552 13 142 0.0 0.0 0.00 0.00 0.00 85 1031.9
20260503200051 13 142 0.0 0.0 0.00 0.00 0.00 85 1031.8
20260503194550 13 142 0.0 0.0 0.00 0.00 0.00 84 1031.8
20260503193106 13 141 0.0 1.6 0.00 0.00 0.00 83 1031.7
20260503191552 13 140 0.0 4.8 0.00 0.00 0.00 81 1031.4
20260503190100 14 142 1.6 6.4 0.00 0.00 0.00 80 1031.3
20260503184547 14 123 3.2 9.7 0.00 0.00 0.00 79 1031.1
20260503183058 14 104 3.2 6.4 0.00 0.00 0.00 79 1031.0
20260503181547 14 117 0.0 9.7 0.00 0.00 0.00 79 1030.9
20260503180054 14 112 3.2 11.3 0.00 0.00 0.00 79 1030.9
20260503174545 14 109 4.8 9.7 0.00 0.00 0.00 79 1030.9
20260503173103 14 117 3.2 9.7 0.00 0.00 0.00 82 1030.7
20260503171546 13 115 0.0 0.0 0.00 0.00 0.00 84 1030.7
20260503081511 12 73 0.0 0.0 0.00 0.00 0.00 85 1031.0
20260503071511 12 98 0.0 0.0 0.00 0.00 0.00 84 1030.5
20260503054600 13 98 0.0 0.0 0.00 0.00 0.00 77 1030.2
20260503053100 14 98 0.0 0.0 0.00 0.00 0.00 76 1030.2
20260503051601 15 98 3.2 4.8 0.00 0.00 0.00 76 1030.1
20260503050059 15 100 3.2 4.8 0.00 0.00 0.00 75 1030.2
20260503044559 15 101 3.2 6.4 0.00 0.00 0.00 75 1030.3
20260503043058 15 105 3.2 6.4 0.00 0.00 0.00 74 1030.2
20260503041557 16 103 1.6 6.4 0.00 0.00 0.00 74 1030.4
20260503040055 16 98 1.6 6.4 0.00 0.00 0.00 73 1030.3
20260503034555 16 87 3.2 6.4 0.00 0.00 0.00 73 1030.3
20260503033055 16 89 4.8 12.9 0.00 0.00 0.00 71 1030.3
20260503031553 16 34 6.4 12.9 0.00 0.00 0.00 69 1030.1
20260503030052 16 92 8.0 11.3 0.00 0.00 0.00 71 1030.2
20260503024558 17 86 0.0 11.3 0.00 0.00 0.00 70 1030.2
20260503023050 17 123 4.8 12.9 0.00 0.00 0.00 70 1030.2
20260503021557 17 114 4.8 12.9 0.00 0.00 0.00 69 1030.3
20260503020053 17 87 9.7 17.7 0.00 0.00 0.00 69 1030.4
20260503014617 17 180 6.4 17.7 0.00 0.00 0.00 69 1030.4
20260503013044 17 127 8.0 16.1 0.00 0.00 0.00 70 1030.6
20260503011548 17 109 9.7 16.1 0.00 0.00 0.00 69 1030.7
20260503010050 17 146 8.0 14.5 0.00 0.00 0.00 71 1030.8
20260503004554 17 121 8.0 16.1 0.00 0.00 0.00 72 1031.1
20260503003039 17 99 9.7 17.7 0.00 0.00 0.00 69 1031.1
20260503001539 17 86 8.0 14.5 0.00 0.00 0.00 74 1031.4
20260503000037 17 96 8.0 14.5 0.00 0.00 0.00 73 1031.6
20260502234542 17 107 1.6 16.1 0.00 0.00 0.00 69 1031.8
20260502233034 17 96 11.3 16.1 0.00 0.00 0.00 72 1031.9
20260502231537 17 135 9.7 17.7 0.00 0.00 0.00 69 1032.0
20260502230032 16 67 4.8 12.9 0.00 0.00 0.00 72 1032.1
20260502224530 16 101 6.4 12.9 0.00 0.00 0.00 72 1032.1
20260502223034 16 124 3.2 12.9 0.00 0.00 0.00 72 1032.3
20260502221526 16 111 8.0 14.5 0.00 0.00 0.00 72 1032.3
20260502220026 16 101 4.8 16.1 0.00 0.00 0.00 76 1032.3
20260502214523 15 128 6.4 14.5 0.00 0.00 0.00 77 1032.3
20260502213020 15 169 4.8 9.7 0.00 0.00 0.00 81 1032.2
20260502211533 15 182 3.2 8.0 0.00 0.00 0.00 82 1032.3
20260502210016 14 172 4.8 9.7 0.00 0.00 0.00 83 1032.3